Weather History for Phuket, Thailand

Change the Weather History Date:

Monday, June 3, 2013

  Actual Average Record
Temperature  
Mean Temperature 80 °F -  
Max Temperature 87 °F 88 °F 93 °F (2002)
Min Temperature 73 °F 77 °F 73 °F (2012)
Cooling Degree Days 15    
Growing Degree Days 30 (Base 50)    
Moisture  
Dew Point 75 °F    
Average Humidity 82    
Maximum Humidity 94    
Minimum Humidity 65    
Precipitation  
Precipitation 0.12 in 0.38 in - ()
Sea Level Pressure  
Sea Level Pressure 29.74 in    
Wind  
Wind Speed 5 mph ()    
Max Wind Speed 17 mph    
Max Gust Speed 29 mph    
Visibility 5.4 miles    
Events Rain    
Averages and records for this station are not official NWS values.
T = Trace of Precipitation, MM = Missing Value Source: Averaged Metar Reports

Daily Weather History Graph

Daily Weather History Graph

Search for Another Location

Airport:

Trip Planner

Search our weather history database for the weather conditions in past years. The results will help you decide how hot, cold, wet, or windy it might be!

Date:

Astronomy

Jun. 03, 2013 Rise Set
Actual Time 6:07 AM ICT 6:42 PM ICT
Civil Twilight 5:45 AM ICT 7:04 PM ICT
Nautical Twilight 5:18 AM ICT 7:31 PM ICT
Astronomical Twilight 4:51 AM ICT 7:58 PM ICT
Moon 1:57 AM ICT (6/3) 2:27 PM ICT (6/3)
Length of Visible Light 13h 19m
Length of Day
12h 34m
Waning Crescent, 26% of the Moon is Illuminated
Jun 3
Waning Crescent
Jun 8
New
Jun 17
First Quarter
Jun 23
Full
Jun 30
Last Quarter

Hourly Weather History & Observations

Time (ICT) Temp. Heat Index Dew Point Humidity Pressure Visibility Wind Dir Wind Speed Gust Speed Precip Events Conditions
12:00 AM 77.0 °F - 73.4 °F 89% 29.77 in 5.6 mi Calm Calm - N/A   Mostly Cloudy
12:30 AM 77.0 °F - 73.4 °F 89% 29.74 in 5.6 mi Calm Calm - N/A   Mostly Cloudy
1:00 AM 77 °F - 75 °F 92% 29.71 in 6 mi Calm Calm - -   Scattered Clouds
1:00 AM 75.2 °F - 73.4 °F 94% 29.74 in 5.6 mi Calm Calm - N/A   Mostly Cloudy
1:30 AM 75.2 °F - 73.4 °F 94% 29.71 in 5.6 mi Calm Calm - N/A   Scattered Clouds
2:00 AM 75.2 °F - 73.4 °F 94% 0.18 in 5.6 mi Calm Calm - N/A   Scattered Clouds
3:00 AM 75.2 °F - 73.4 °F 94% 29.62 in 5.6 mi Calm Calm - N/A   Scattered Clouds
4:00 AM 75.2 °F - 73.4 °F 94% 29.68 in 5.6 mi Calm Calm - N/A   Scattered Clouds
5:00 AM 75.2 °F - 73.4 °F 94% 29.71 in 5.6 mi Calm Calm - N/A   Scattered Clouds
6:00 AM 78.8 °F - 73.4 °F 83% 29.71 in 5.6 mi SW 3.5 mph - N/A   Scattered Clouds
6:30 AM 80.6 °F 86.2 °F 75.2 °F 84% 29.74 in 5.6 mi WSW 11.5 mph - N/A   Mostly Cloudy
7:00 AM 82 °F - 76 °F 78% 29.71 in 6 mi West 4.6 mph - -   Scattered Clouds
7:00 AM 82.4 °F 89.5 °F 75.2 °F 79% 29.74 in 5.6 mi West 12.7 mph - N/A   Mostly Cloudy
7:30 AM 80.6 °F 86.2 °F 75.2 °F 84% 29.74 in 5.6 mi WSW 9.2 mph - N/A   Mostly Cloudy
8:00 AM 82.4 °F 90.9 °F 77.0 °F 84% 29.77 in 5.6 mi SW 8.1 mph - N/A   Mostly Cloudy
8:30 AM 82.4 °F 89.5 °F 75.2 °F 79% 29.77 in 5.0 mi West 11.5 mph - N/A   Mostly Cloudy
9:00 AM 82.4 °F 88.2 °F 73.4 °F 74% 29.77 in 5.0 mi WSW 5.8 mph - N/A   Mostly Cloudy
9:30 AM 84.2 °F 90.9 °F 73.4 °F 70% 29.77 in 5.6 mi WSW 9.2 mph 20.7 mph N/A   Mostly Cloudy
10:00 AM 86.0 °F 95.1 °F 75.2 °F 70% 29.77 in 5.6 mi West 12.7 mph - N/A   Mostly Cloudy
10:30 AM 86.0 °F 95.1 °F 75.2 °F 70% 29.77 in 6.2 mi West 13.8 mph - N/A   Mostly Cloudy
11:00 AM 87.8 °F 97.6 °F 75.2 °F 66% 29.77 in 6.2 mi West 13.8 mph - N/A   Mostly Cloudy
11:30 AM 87.8 °F 97.6 °F 75.2 °F 66% 29.77 in 6.2 mi West 12.7 mph - N/A   Mostly Cloudy
12:00 PM 87.8 °F 97.6 °F 75.2 °F 66% 29.74 in 6.2 mi West 13.8 mph - N/A   Mostly Cloudy
12:30 PM 86.0 °F 95.1 °F 75.2 °F 70% 29.74 in 6.2 mi West 12.7 mph - N/A   Mostly Cloudy
1:00 PM 87 °F - 77 °F 65% 29.73 in 6 mi WNW 6.9 mph - -   Scattered Clouds
1:00 PM 87.8 °F 99.7 °F 77.0 °F 70% 29.74 in 6.2 mi West 13.8 mph - N/A   Mostly Cloudy
1:30 PM 87.8 °F 97.6 °F 75.2 °F 66% 29.74 in 6.2 mi West 13.8 mph - N/A   Mostly Cloudy
2:00 PM 87.8 °F 99.7 °F 77.0 °F 70% 29.71 in 6.2 mi West 12.7 mph - N/A   Mostly Cloudy
2:30 PM 87.8 °F 99.7 °F 77.0 °F 70% 29.71 in 6.2 mi West 12.7 mph - N/A   Mostly Cloudy
3:00 PM 86.0 °F 95.1 °F 75.2 °F 70% 29.71 in 5.6 mi West 11.5 mph - N/A   Mostly Cloudy
3:30 PM 80.6 °F 85.4 °F 73.4 °F 79% 29.71 in 3.1 mi West 16.1 mph 27.6 mph N/A Rain Rain
4:00 PM 77.0 °F - 73.4 °F 89% 29.71 in 3.1 mi West 10.4 mph - N/A Rain Rain
4:30 PM 78.8 °F - 75.2 °F 89% 29.71 in 5.0 mi Variable 1.2 mph - N/A   Mostly Cloudy
5:00 PM 78.8 °F - 75.2 °F 89% 29.71 in 5.0 mi Variable 2.3 mph - N/A   Mostly Cloudy
5:30 PM 80.6 °F 86.2 °F 75.2 °F 84% 29.71 in 5.0 mi Variable 3.5 mph - N/A   Mostly Cloudy
6:00 PM 82.4 °F 89.5 °F 75.2 °F 79% 29.71 in 5.0 mi West 8.1 mph - N/A   Mostly Cloudy
6:30 PM 80.6 °F 86.2 °F 75.2 °F 84% 29.74 in 5.0 mi Variable 4.6 mph - N/A   Mostly Cloudy
7:00 PM 83 °F - 76 °F 73% 29.71 in 6 mi WNW 4.6 mph - -   Partly Cloudy
7:00 PM 80.6 °F 86.2 °F 75.2 °F 84% 29.74 in 5.0 mi Variable 3.5 mph - N/A   Mostly Cloudy
7:30 PM 78.8 °F - 75.2 °F 89% 29.74 in 5.0 mi Calm Calm - N/A   Mostly Cloudy
8:00 PM 77.0 °F - 75.2 °F 94% 29.74 in 5.0 mi Calm Calm - N/A   Mostly Cloudy
8:30 PM 77.0 °F - 75.2 °F 94% 29.77 in 5.0 mi Calm Calm - N/A   Mostly Cloudy
9:00 PM 77.0 °F - 75.2 °F 94% 29.77 in 5.0 mi Calm Calm - N/A   Mostly Cloudy
9:30 PM 77.0 °F - 75.2 °F 94% 29.80 in 5.0 mi Calm Calm - N/A   Mostly Cloudy
10:00 PM 77.0 °F - 75.2 °F 94% 29.80 in 5.0 mi Calm Calm - N/A   Mostly Cloudy
10:30 PM 77.0 °F - 75.2 °F 94% 29.80 in 5.0 mi WSW 17.3 mph 28.8 mph N/A   Mostly Cloudy
11:00 PM 77.0 °F - 73.4 °F 89% 29.80 in 5.0 mi SSW 5.8 mph - N/A   Mostly Cloudy
11:30 PM 77.0 °F - 73.4 °F 89% 29.80 in 5.0 mi Calm Calm - N/A   Mostly Cloudy